Wind_Speed
20 18 21 21 18 18 17 18 19 19 19 18 18 17 17 17 16 15 14 13 13 13 13 13 13 15 16 16 15 14 13 14 15 16 16 15 14 13 14 14 13 13 12 12 11 9 9 9 9 8 8 8 7 8 9 9 9 9 10 11 12 11 11 12 12 12 12 12 11 10 13 17 20 20 21 20 19 18 16 16 17 18 18 17 17
23 21 21 21 19 18 17 19 19 19 18 17 17 17 17 17 16 15 14 13 13 13 12 13 13 14 14 15 14 13 12 11 13 14 15 14 13 13 13 13 12 12 11 11 9 8 8 8 8 8 7 7 7 7 9 9 9 9 10 12 12 11 11 12 11 11 11 11 10 10 13 17 19 19 20 20 19 17 15 16 17 18 18 17 17
22 23 22 21 19 18 18 19 19 18 17 17 17 18 18 17 16 16 15 14 13 13 12 12 13 13 13 13 13 12 12 10 10 12 13 12 12 12 12 12 11 10 10 10 9 8 7 8 7 7 7 7 8 8 9 9 10 10 11 12 12 12 12 12 11 11 10 10 9 10 14 16 17 18 19 19 18 16 15 16 16 17 17 17 18
22 23 23 22 20 19 19 19 19 18 17 17 17 18 18 18 16 16 16 14 14 12 12 11 12 12 12 11 11 11 11 10 9 9 10 10 10 10 10 10 10 9 9 8 8 8 7 7 7 8 7 7 8 9 8 9 10 10 11 13 13 13 13 12 10 9 9 8 7 10 14 15 15 17 18 18 18 16 16 16 16 16 17 17 18
22 23 23 22 21 20 20 19 19 18 17 17 17 18 18 18 17 16 16 15 13 12 11 11 11 10 10 10 9 10 10 10 8 8 7 8 9 9 9 8 9 8 8 8 8 8 6 7 7 6 6 7 8 9 9 9 10 11 13 15 16 15 14 12 10 8 7 5 5 8 13 13 13 16 17 17 16 16 17 16 16 16 16 16 16
21 23 23 22 22 21 21 20 19 18 17 17 17 17 18 18 17 16 16 15 13 12 11 10 10 9 9 8 9 9 9 9 8 7 6 7 8 8 8 7 7 7 6 7 7 7 6 7 7 5 5 7 8 9 10 11 11 13 16 18 18 17 16 13 11 8 5 4 3 6 10 13 12 14 16 16 16 16 17 16 15 15 15 16 16
21 23 23 22 22 22 21 20 19 18 18 17 17 17 17 18 17 17 16 15 13 12 10 9 8 7 7 8 9 9 9 9 8 8 7 7 7 6 7 6 6 6 6 6 7 7 6 6 6 5 4 6 8 9 11 13 13 16 18 19 19 18 18 15 13 10 8 6 2 3 8 14 12 12 15 15 15 16 16 16 15 15 14 15 16
21 22 23 22 22 22 21 21 20 19 18 17 17 17 17 17 17 16 15 14 13 12 11 9 8 7 7 8 9 9 8 8 8 8 7 7 6 6 6 6 6 6 6 6 6 6 5 5 5 5 2 2 4 7 11 15 16 18 19 20 20 19 19 17 14 11 9 7 3 3 9 14 12 10 13 14 15 16 16 15 15 14 14 14 14
21 22 22 22 23 23 21 20 20 19 18 17 17 17 17 17 16 16 15 14 13 12 11 10 8 7 7 8 9 9 8 9 9 9 8 7 6 6 6 6 6 6 6 5 5 5 5 6 5 4 1 2 1 4 9 16 18 19 20 20 20 21 20 17 14 11 9 6 3 3 7 10 12 10 12 14 14 15 16 15 14 13 13 13 14
21 23 22 22 23 23 22 21 20 19 18 17 17 18 18 17 17 16 16 15 14 13 12 10 9 8 8 9 9 9 9 10 10 10 9 8 8 7 7 7 7 7 6 4 5 5 5 5 4 2 1 3 3 1 6 14 19 20 20 20 22 22 19 16 13 10 7 3 1 3 3 5 9 9 11 13 14 14 15 14 13 13 12 12 13
21 22 22 22 23 22 22 21 20 19 18 18 18 18 18 17 17 16 16 15 14 13 12 11 10 10 10 10 10 10 10 10 10 10 9 8 8 8 8 8 8 7 6 5 5 5 5 4 3 2 2 4 3 1 3 11 18 20 20 21 21 21 18 15 13 10 7 2 1 3 5 4 7 8 10 12 14 14 13 13 12 12 12 12 12
20 22 22 22 23 22 21 21 20 19 18 18 18 18 17 17 16 16 15 14 14 13 12 12 11 11 11 11 11 11 10 10 9 9 8 7 7 7 8 8 8 7 6 5 4 4 4 3 2 2 4 3 2 1 2 7 15 20 20 21 19 18 16 14 11 9 7 1 3 3 4 3 4 7 9 11 13 14 12 11 11 12 12 12 12
20 22 22 22 23 22 21 20 20 19 18 18 18 18 17 17 16 15 14 14 13 13 12 12 12 12 12 12 11 11 10 9 8 7 6 6 6 6 7 7 7 7 7 6 5 4 3 3 2 2 3 2 2 2 3 6 12 18 20 20 18 16 14 13 10 7 5 2 3 2 1 1 1 4 8 10 12 13 12 11 10 10 12 12 12
20 22 22 22 23 22 21 20 19 19 18 18 18 18 17 17 16 15 14 13 13 12 12 12 12 11 11 11 11 11 9 8 7 6 6 5 6 6 6 6 6 6 6 6 6 6 5 4 2 1 2 2 2 2 3 6 11 16 18 19 18 15 13 12 9 7 4 2 3 2 1 3 2 5 9 9 10 12 11 11 9 9 11 12 12
18 20 20 21 22 22 21 20 20 19 18 18 18 18 17 17 16 14 13 12 12 11 11 11 11 10 10 10 10 10 9 8 7 5 5 5 5 5 5 4 5 6 6 6 6 6 7 6 4 3 2 2 1 2 3 6 11 15 18 19 18 15 13 11 9 5 2 2 2 2 1 2 4 8 10 9 10 11 11 11 10 9 10 11 12
16 18 19 20 21 21 22 20 19 18 17 18 18 18 17 17 16 15 14 12 12 11 11 10 10 9 9 10 10 10 9 7 7 6 5 4 4 4 4 3 4 5 5 5 5 6 6 5 4 5 4 2 2 3 4 6 10 14 18 19 18 17 13 11 9 5 3 3 2 1 1 3 5 9 9 9 10 11 11 11 10 9 9 10 11
16 16 18 19 19 20 20 20 19 18 17 17 17 17 16 16 16 15 14 13 12 11 11 10 9 8 8 9 9 9 8 7 7 7 6 4 4 3 3 3 3 4 4 4 4 5 5 4 4 4 5 4 2 2 4 6 9 14 19 19 17 17 14 11 9 6 4 2 1 0 2 3 7 9 8 8 10 11 10 10 10 9 9 10 10
16 15 17 18 18 18 17 17 17 17 16 16 16 15 15 15 15 14 13 12 12 11 10 9 8 7 7 8 8 8 8 7 7 6 5 5 4 3 3 3 3 3 3 3 3 3 3 4 5 4 5 5 4 2 4 7 9 14 19 18 16 15 14 11 8 7 4 2 3 2 0 2 6 8 8 8 9 11 11 10 10 9 9 9 10
15 16 16 16 17 16 16 16 15 14 14 14 14 14 15 15 15 14 13 12 11 11 10 9 8 8 8 8 8 8 9 8 7 7 5 5 4 3 3 2 3 3 2 2 2 2 2 3 5 4 5 4 5 3 4 8 10 14 19 17 15 13 11 10 8 6 3 3 4 6 4 2 4 5 7 9 9 11 11 10 10 9 9 9 9
14 16 16 15 16 15 16 14 13 12 12 12 12 13 14 14 14 14 13 12 12 12 10 8 8 8 7 8 9 9 10 9 8 6 4 4 3 2 2 2 3 3 3 2 2 2 2 3 4 4 4 4 5 5 5 8 11 14 18 18 15 12 9 9 8 4 1 2 4 6 5 3 4 4 6 9 8 10 11 10 9 9 8 8 8
14 17 16 16 16 16 15 14 13 12 11 10 10 11 12 13 13 13 12 12 12 11 10 8 8 7 6 8 8 8 8 7 6 4 2 2 2 1 1 2 3 3 3 2 2 2 3 4 5 4 4 4 5 6 6 8 11 15 19 19 16 13 9 7 5 2 1 3 4 4 4 3 4 4 6 9 8 9 10 10 9 9 8 7 8
18 18 16 16 16 17 16 14 15 12 10 10 11 10 10 11 11 12 12 11 10 11 10 8 8 7 7 8 8 8 7 6 4 3 2 1 1 2 2 2 3 3 3 3 2 3 3 5 6 6 6 5 6 7 8 9 10 14 19 20 16 13 11 6 3 2 1 3 5 5 5 4 3 4 7 9 9 8 9 9 9 9 8 7 7
20 18 17 16 16 17 15 15 16 12 10 10 11 10 9 11 11 11 10 10 10 10 9 7 7 8 8 8 8 8 7 5 4 3 3 1 1 2 2 3 3 3 3 3 2 3 4 5 7 8 8 7 7 9 11 11 10 11 15 17 14 11 10 5 3 2 2 4 5 6 6 5 2 2 5 8 9 8 9 9 9 9 8 7 7
19 18 17 16 16 16 14 14 15 13 12 12 12 11 9 10 11 10 9 9 9 8 8 8 7 8 9 8 9 9 7 5 4 3 2 1 3 3 2 2 4 4 4 3 2 3 5 6 7 10 10 9 10 12 14 13 10 10 11 12 12 10 8 4 3 2 3 3 5 6 6 6 4 2 1 7 9 8 8 9 9 9 8 7 6
18 17 17 17 17 16 15 14 14 13 12 11 11 11 10 10 11 10 10 10 9 7 9 10 9 9 9 9 10 9 8 6 5 3 1 1 4 5 4 2 4 5 4 4 3 4 5 6 7 11 13 13 13 12 12 12 10 8 7 6 7 10 9 4 5 2 2 3 5 6 6 6 5 4 2 4 7 7 7 7 8 8 8 7 7
18 17 19 19 19 19 16 15 15 13 11 9 9 10 10 10 10 11 13 12 9 8 11 10 8 9 10 11 11 10 10 8 6 4 1 2 4 5 5 4 5 5 4 5 5 5 6 7 8 11 15 16 14 11 8 10 10 7 5 4 3 8 10 7 5 3 3 3 4 5 5 6 6 5 5 1 3 5 6 6 6 6 7 7 6
20 18 20 19 20 21 18 15 14 12 10 10 11 9 8 9 9 11 14 12 9 9 10 8 7 10 12 12 12 12 12 9 7 6 3 3 4 4 5 5 5 5 5 6 6 6 8 8 9 12 15 16 13 9 5 6 9 7 3 3 2 5 8 8 6 5 4 3 3 3 4 5 5 5 4 3 1 2 4 5 5 6 6 6 5
21 20 19 19 18 19 18 14 11 11 11 10 10 8 6 7 8 11 13 11 10 10 10 8 9 12 13 12 12 13 12 10 8 7 5 4 5 6 6 4 5 5 5 6 5 6 7 7 9 10 11 13 13 10 6 7 8 8 5 4 3 4 4 5 6 5 3 2 2 2 3 4 4 4 4 3 3 2 2 4 5 5 6 6 5
21 19 18 18 15 15 15 12 12 12 11 11 9 8 6 6 8 11 12 10 10 10 10 10 11 13 13 11 12 13 12 10 9 7 6 6 6 7 8 6 4 6 6 6 7 7 6 6 7 8 8 9 12 11 10 11 11 10 9 7 5 4 3 5 5 4 3 2 2 2 2 4 4 4 4 4 4 3 2 2 4 5 6 6 7
21 20 18 17 15 16 16 12 13 12 11 10 8 8 8 6 7 9 9 8 6 8 9 9 10 13 13 11 12 12 11 10 8 7 6 7 7 6 8 8 6 6 6 6 9 8 6 6 7 7 6 7 9 9 9 12 12 11 10 9 6 5 3 5 4 3 2 2 3 3 3 4 5 5 4 5 5 4 3 2 2 3 4 5 7
20 21 19 18 17 18 16 11 12 11 9 9 7 7 8 6 4 4 6 5 2 3 7 9 9 12 12 11 11 11 12 12 9 8 7 9 10 7 8 9 8 8 8 8 10 8 6 6 7 7 7 6 9 8 8 11 12 13 12 10 7 6 5 4 4 4 2 3 4 3 4 4 5 5 6 6 6 5 4 3 2 2 3 3 4
20 20 19 20 18 17 15 13 15 11 9 10 7 6 6 6 5 4 4 3 1 0 4 7 9 10 11 10 9 10 13 14 12 9 9 12 14 12 11 11 9 9 10 10 11 10 8 8 9 10 9 8 9 11 11 11 11 13 14 12 10 9 8 6 5 5 4 4 4 4 3 4 5 5 6 6 7 6 5 4 3 2 2 2 2
19 19 21 21 16 15 14 14 16 13 11 13 10 8 7 5 4 4 3 3 2 1 1 3 8 11 11 11 11 13 15 14 12 9 10 13 14 12 12 10 8 8 10 9 10 11 11 11 11 12 12 11 10 10 11 11 12 12 13 14 13 12 11 9 8 7 6 5 5 5 4 3 4 4 4 5 6 6 6 5 4 3 2 2 2
19 20 22 20 16 14 12 12 15 14 14 13 11 11 11 8 5 4 3 2 3 2 1 2 6 10 12 12 12 13 13 11 9 9 12 12 10 10 12 9 6 7 9 9 10 11 11 12 12 11 13 13 12 11 10 11 12 11 11 12 13 13 12 10 10 10 9 7 6 6 5 5 3 4 5 6 7 7 6 5 4 4 3 3 3
22 22 22 20 18 15 12 13 15 15 13 10 9 10 11 11 9 8 7 7 7 3 1 3 7 9 9 10 10 9 9 7 7 9 11 11 10 10 10 8 5 5 7 9 11 12 11 13 12 12 12 12 13 13 11 11 11 9 9 9 10 12 13 13 12 12 11 10 8 6 6 7 5 5 6 8 8 8 6 5 6 5 4 4 4
23 22 22 22 20 16 15 17 15 13 10 7 6 6 8 10 10 8 4 3 3 1 2 3 5 6 6 6 7 7 7 7 6 7 6 6 6 7 8 8 9 7 7 9 11 12 13 13 14 14 12 11 12 12 12 11 9 9 10 8 7 8 10 12 14 14 14 13 11 9 8 8 8 8 7 7 9 9 7 6 6 6 5 6 5
22 21 23 23 20 18 18 18 16 14 12 10 8 7 8 8 7 6 6 6 5 5 3 4 5 5 7 6 7 6 6 6 6 5 5 4 4 6 7 8 9 9 9 10 11 13 14 14 15 15 13 12 11 11 11 10 8 9 11 10 9 8 7 9 11 13 15 16 15 13 11 10 10 10 9 8 9 10 9 8 8 7 6 6 6
20 21 23 22 20 20 19 17 16 14 13 12 10 10 10 9 9 10 10 8 7 6 3 3 4 4 6 6 7 7 7 6 5 5 5 6 7 8 8 7 8 10 12 11 12 13 14 15 15 14 13 13 12 11 10 7 6 7 9 10 9 9 8 9 10 11 12 14 16 16 15 13 12 11 11 10 9 10 11 10 9 8 7 6 6
20 22 23 21 21 21 18 16 16 15 14 13 12 11 9 11 12 11 11 9 7 7 4 0 1 2 5 5 4 5 6 5 5 6 7 9 10 9 8 7 7 9 11 11 13 14 15 16 15 14 15 14 12 12 9 7 7 7 6 8 9 9 8 9 11 12 12 12 13 14 15 16 15 13 12 11 9 10 12 11 9 9 8 7 7
21 23 23 22 22 21 19 17 17 16 15 14 13 13 12 13 14 12 12 10 8 7 3 3 2 3 5 5 6 6 6 6 6 6 6 6 5 5 6 7 6 7 8 10 12 14 15 16 15 15 16 14 13 12 10 8 9 7 6 8 10 10 10 10 11 12 13 13 13 13 14 15 16 15 13 11 10 11 12 11 10 11 10 9 8
22 24 24 23 23 22 21 19 18 17 15 14 13 13 14 14 13 11 10 9 7 8 6 4 4 4 6 7 7 8 8 7 6 6 5 3 2 3 3 4 5 6 8 9 11 13 14 14 15 16 14 13 13 12 10 9 9 8 8 9 10 11 10 11 12 11 11 12 13 14 14 15 16 17 15 13 12 14 14 14 13 13 12 11 10
24 25 26 24 24 22 21 20 18 17 15 13 12 11 12 13 12 11 12 9 7 7 6 7 7 7 9 10 9 9 9 8 5 5 5 4 3 2 2 2 4 6 8 9 9 11 12 13 15 15 14 14 13 12 11 10 9 10 8 8 9 10 11 11 10 9 8 9 11 14 15 16 17 17 16 14 14 15 16 16 16 15 14 13 12
26 27 27 25 25 23 20 19 18 17 14 13 11 10 11 12 12 12 13 10 8 7 5 6 8 9 11 10 8 7 7 8 7 5 6 7 5 3 2 1 2 4 6 6 7 8 9 10 12 13 13 14 13 12 12 10 10 10 8 8 8 9 9 8 7 6 6 7 7 11 14 16 17 17 14 13 14 15 16 17 17 16 14 14 14
28 28 28 25 25 24 21 19 18 17 15 14 13 13 13 13 13 13 13 11 10 8 3 3 5 6 7 7 7 7 6 9 11 10 9 8 6 6 4 2 1 3 2 3 5 5 6 7 9 10 10 11 13 12 11 11 11 11 9 7 8 8 8 6 6 6 6 6 4 6 12 14 16 17 17 15 13 12 12 14 15 16 16 16 16
31 30 30 26 25 24 21 18 17 17 16 17 18 16 15 15 15 15 14 12 10 8 6 7 8 7 7 7 7 8 8 9 10 11 12 10 8 8 7 4 3 4 5 4 4 3 3 5 7 7 7 9 12 12 11 12 12 12 10 7 7 6 6 6 6 6 5 5 5 4 7 11 12 14 16 17 15 12 10 9 11 15 17 19 20
32 31 32 27 24 23 20 17 16 18 19 20 19 16 15 14 14 15 13 11 11 11 10 10 10 8 8 8 7 7 7 7 8 10 12 13 10 8 6 5 4 5 6 7 8 6 4 5 6 5 6 9 11 11 10 11 11 12 11 10 8 7 6 6 6 6 5 5 6 5 6 7 8 9 11 13 15 15 14 12 11 13 15 17 19
34 32 33 29 24 23 21 18 16 18 20 20 18 16 15 13 13 14 12 11 14 14 12 11 10 8 8 8 8 9 8 8 11 13 13 12 11 9 8 8 7 8 9 8 8 6 4 6 7 7 6 7 8 8 9 9 10 11 11 11 10 8 7 7 8 7 7 7 7 6 6 7 8 8 9 10 13 15 17 17 14 14 14 13 15
36 33 33 31 27 25 23 21 17 18 19 19 18 16 15 14 14 14 13 12 13 13 12 10 8 8 9 10 10 11 11 10 11 12 12 11 10 9 9 10 11 11 11 9 9 7 6 8 9 8 6 6 7 7 7 7 8 9 8 7 6 5 5 6 6 6 7 9 9 8 8 8 9 9 9 10 10 12 15 15 14 14 13 12 12
38 36 34 32 30 28 27 23 19 19 20 19 18 17 16 15 16 15 15 14 12 12 12 10 9 9 11 11 11 11 10 10 10 11 12 12 11 10 10 10 9 9 10 10 10 10 9 8 9 8 7 7 9 10 11 11 10 9 8 7 5 4 3 2 2 1 1 3 5 5 6 9 10 9 7 8 9 10 12 11 11 12 11 10 9
40 37 35 34 32 32 30 25 21 21 22 21 19 18 17 17 18 17 17 17 15 13 13 12 12 11 11 11 10 10 10 10 10 10 10 12 12 10 9 8 7 7 8 8 8 10 9 8 8 9 8 7 7 9 11 12 11 9 8 8 7 7 7 6 5 4 3 2 2 2 5 8 10 9 7 7 8 8 10 10 8 9 9 7 7
41 37 36 36 35 35 32 28 25 24 25 23 21 19 18 19 19 19 18 17 15 13 14 14 14 12 11 11 10 11 11 10 10 10 10 10 11 10 8 7 7 9 9 8 7 8 7 6 6 7 8 8 7 8 9 9 8 6 5 6 6 7 7 6 5 3 1 1 3 5 7 7 8 9 8 9 9 7 7 7 6 6 7 7 7
Wind_Direction
150 146 141 142 149 150 150 139 133 131 130 128 127 129 134 142 147 150 146 142 135 129 126 120 117 117 119 119 116 111 110 115 118 120 118 117 115 112 106 100 97 96 93 89 91 93 90 98 106 103 100 96 104 128 142 151 155 151 145 139 127 117 113 112 113 116 116 111 106 97 84 80 78 76 76 77 78 76 73 74 78 78 77 76 76
151 146 141 142 149 152 149 139 135 133 130 128 128 131 136 144 148 151 150 147 139 133 129 123 120 120 121 121 121 117 115 116 118 121 120 120 119 115 107 100 97 96 96 94 94 89 81 88 102 106 105 102 100 119 134 142 149 150 145 137 126 121 122 121 123 121 113 106 101 89 83 82 80 78 77 77 78 76 76 77 78 79 81 81 80
150 144 142 143 150 152 147 139 136 134 131 130 130 133 138 143 149 153 155 152 142 137 132 125 122 122 122 122 126 124 121 121 119 119 118 120 117 114 107 102 100 98 98 94 88 81 71 72 93 108 107 109 104 113 129 137 141 141 138 134 130 129 129 128 128 122 115 107 97 83 80 83 82 81 80 79 78 78 79 79 78 81 82 80 81
150 144 143 145 150 150 145 139 138 136 133 133 132 134 139 143 148 155 158 154 147 142 135 128 126 124 124 123 125 127 125 125 123 120 117 118 117 115 111 107 104 101 101 94 86 81 65 58 84 106 104 111 111 113 125 133 131 132 133 132 130 129 128 127 126 125 122 116 99 83 79 78 82 82 80 80 80 81 80 79 79 81 82 82 83
150 146 145 145 149 148 143 140 138 137 135 135 133 134 139 144 149 156 158 156 152 147 140 134 129 125 123 122 125 129 128 125 122 122 119 118 120 120 118 113 108 106 104 100 94 87 71 57 71 94 104 114 120 117 122 129 127 127 128 127 126 124 122 120 119 119 121 122 107 91 81 70 76 83 81 80 81 82 81 80 82 82 82 83 86
150 148 146 147 147 145 141 140 139 137 137 135 134 135 139 145 150 155 157 157 156 151 147 140 133 127 119 118 123 127 125 121 122 124 122 118 121 123 122 118 114 114 111 110 105 97 83 70 74 86 97 113 126 125 122 124 127 128 128 127 125 120 114 110 105 100 97 104 106 101 78 60 70 83 84 85 83 81 81 81 82 82 82 80 83
150 148 147 148 145 143 141 140 139 138 137 135 134 135 139 145 151 155 157 157 159 156 154 150 140 129 117 115 121 124 119 116 120 122 122 120 121 124 125 123 122 124 124 120 113 110 98 87 97 101 100 120 133 133 124 122 127 130 132 130 124 119 113 106 102 99 95 94 104 108 64 50 62 84 89 88 83 82 83 81 80 80 82 81 81
148 149 149 148 144 142 142 140 139 138 136 134 132 132 135 141 149 152 153 155 158 159 160 158 146 132 119 115 118 120 116 114 118 118 117 116 112 115 120 124 129 134 134 131 126 122 116 110 119 126 136 137 141 142 129 123 128 132 134 132 126 121 114 111 112 115 118 121 155 99 53 50 62 83 91 89 84 84 84 80 78 79 80 82 83
149 150 151 148 144 143 142 141 140 139 136 133 131 129 129 133 142 147 149 151 154 158 161 160 150 137 123 118 120 119 117 116 115 113 110 106 102 104 111 120 127 133 134 138 138 134 131 129 142 162 213 326 54 136 132 127 131 134 136 133 126 119 115 116 120 124 134 145 161 60 46 57 61 73 91 89 85 84 85 83 80 80 79 80 82
149 151 152 148 144 144 143 142 141 139 136 133 131 128 127 127 132 137 141 146 150 155 158 158 150 140 130 125 124 121 120 120 116 111 106 102 100 99 104 114 120 125 125 127 133 139 139 137 156 178 297 305 325 59 133 133 134 138 138 132 123 120 119 121 122 126 134 138 107 10 359 37 43 63 92 88 87 86 85 88 84 82 80 78 81
150 152 152 148 145 145 144 144 142 139 136 133 131 129 127 126 127 129 134 140 146 150 152 152 146 141 136 131 130 128 127 124 117 110 106 101 95 94 100 109 117 123 124 123 126 132 136 143 161 181 261 275 293 336 145 135 136 143 140 132 127 126 128 126 128 129 124 116 284 313 324 344 27 67 95 89 88 87 86 90 88 88 85 80 81
151 154 152 149 146 146 146 145 143 139 136 132 131 130 128 127 127 127 130 136 142 145 147 147 144 142 140 137 135 133 133 129 122 114 110 100 89 91 97 98 106 115 126 132 135 133 140 158 175 214 238 248 260 243 161 135 137 148 144 137 135 133 134 134 135 130 116 131 265 292 319 337 38 75 92 92 89 90 90 92 92 93 92 87 84
151 155 153 150 146 147 147 145 144 140 136 133 132 131 129 129 128 129 130 134 137 142 145 146 145 144 143 141 138 136 137 134 126 121 113 98 91 92 94 92 97 105 117 124 128 132 132 150 171 219 231 227 234 219 168 139 135 149 151 144 139 136 140 135 133 135 126 181 218 216 282 36 51 83 100 98 93 97 99 100 99 96 96 95 90
149 154 153 150 147 148 147 146 145 142 139 135 134 133 131 130 130 130 129 131 134 140 145 146 145 144 146 145 143 142 142 138 129 125 116 105 103 102 97 93 98 100 108 112 115 120 110 106 112 169 211 232 244 213 177 143 135 150 154 150 145 139 141 134 134 147 140 189 208 195 156 82 87 119 119 110 103 106 108 109 107 103 100 99 97
145 150 151 149 147 148 148 149 147 144 142 137 136 135 134 133 132 131 129 130 133 140 145 146 147 146 149 149 149 149 149 144 135 130 125 120 114 115 109 100 105 105 107 107 113 123 116 102 80 72 152 198 199 165 163 138 135 150 154 151 149 144 145 141 140 150 165 262 264 241 232 60 106 132 131 127 117 115 116 116 114 110 105 102 101
139 143 147 149 150 150 150 150 150 148 145 141 140 139 137 135 133 133 132 133 135 141 145 147 150 151 154 154 154 155 155 150 140 137 139 140 132 129 118 111 118 118 114 107 113 125 121 105 77 60 70 110 141 135 131 122 130 148 152 148 148 146 149 147 143 164 212 240 245 255 351 47 124 141 141 140 129 123 122 120 118 117 110 105 104
138 139 144 149 150 150 152 151 153 152 151 148 144 142 140 138 137 138 139 140 141 143 148 151 152 155 158 159 159 158 157 154 145 141 148 156 156 149 130 125 129 127 123 110 113 122 121 105 94 71 51 62 92 122 114 105 120 146 152 148 145 143 147 147 150 183 211 216 219 106 59 74 129 143 150 151 137 129 127 123 120 121 117 111 108
140 140 142 147 148 148 151 152 155 156 156 153 149 146 144 144 143 144 145 145 146 147 151 152 152 159 163 162 159 156 156 153 148 148 154 159 165 162 142 141 146 136 126 111 105 116 129 115 105 87 51 54 67 98 112 96 108 143 154 150 143 143 145 146 161 193 216 266 298 294 234 122 137 146 158 162 146 134 130 126 123 124 123 118 115
142 141 143 146 145 145 150 153 155 157 160 159 155 153 150 151 150 151 153 153 154 155 155 154 159 169 171 167 160 157 157 158 159 160 158 159 165 170 153 159 167 153 133 121 102 95 123 123 118 96 63 58 68 91 118 99 103 139 154 150 141 142 143 148 172 188 210 274 297 296 285 217 167 157 166 170 155 139 133 130 127 128 127 124 122
140 142 144 146 144 146 150 150 151 157 165 164 163 161 159 160 159 159 160 162 164 163 162 162 171 180 181 174 171 170 167 168 170 165 161 161 158 161 161 171 166 148 137 128 97 85 108 127 128 105 72 67 78 92 118 108 109 136 152 152 143 134 137 161 176 173 215 309 317 307 305 271 221 185 174 175 163 143 137 135 133 132 129 128 127
145 144 144 148 148 150 149 145 149 157 165 167 169 169 172 172 168 169 170 172 172 172 172 172 177 187 192 186 185 182 177 176 171 161 153 150 134 120 128 167 166 145 146 139 89 79 102 125 124 111 85 80 87 95 115 112 114 136 148 151 145 126 121 150 162 137 332 344 349 337 340 306 253 209 182 176 170 150 141 141 138 135 133 132 129
153 149 149 152 153 156 154 150 149 155 166 172 173 169 178 183 181 180 181 184 182 181 182 178 179 190 193 196 198 187 183 179 167 143 97 65 91 95 72 119 143 144 157 141 101 85 102 124 120 117 107 105 106 96 107 107 111 136 149 151 144 125 114 120 151 171 307 337 348 353 357 340 286 213 188 179 177 157 145 146 142 139 137 133 130
156 150 149 151 154 159 162 159 149 154 171 177 174 170 180 188 191 186 184 193 192 189 189 189 189 192 192 198 203 192 185 179 173 163 135 124 164 118 68 77 112 131 156 143 119 112 119 130 126 126 117 115 118 100 100 99 101 128 149 157 157 141 122 119 180 207 301 317 328 347 353 355 357 223 199 187 184 166 152 151 148 144 140 136 131
154 149 149 148 151 158 166 165 152 155 170 179 179 177 184 189 191 186 189 196 191 195 199 203 206 199 195 198 204 199 187 185 195 191 167 167 170 154 119 95 123 137 150 148 146 140 140 141 140 136 124 124 127 107 98 93 93 118 139 156 173 167 132 132 199 240 299 303 317 336 351 7 26 15 226 192 188 177 161 158 157 152 151 148 137
152 148 151 151 154 157 158 157 155 155 161 176 183 181 181 185 188 184 198 196 180 202 206 201 211 212 205 201 205 203 192 199 208 207 253 172 141 144 153 148 143 149 154 142 137 142 143 143 148 142 130 130 132 116 102 96 96 114 128 137 166 161 141 170 214 229 277 294 314 334 355 10 28 35 41 188 191 184 174 169 166 163 163 160 152
158 151 150 150 156 158 149 142 149 154 156 171 180 181 182 185 184 182 201 201 179 201 209 202 212 217 215 212 208 204 200 206 206 201 223 144 130 137 164 190 166 159 167 146 124 128 135 135 142 141 131 128 128 119 109 112 113 116 123 106 111 145 157 188 207 213 252 291 316 348 6 17 27 34 40 47 205 191 187 187 183 180 178 173 170
159 152 146 146 154 157 150 138 142 153 161 173 175 176 186 189 187 190 204 206 191 210 222 215 216 214 215 219 213 205 206 208 204 197 172 157 162 155 167 199 195 179 170 151 129 131 135 130 133 137 134 131 125 113 113 135 131 131 138 104 99 162 179 191 191 214 251 292 319 1 12 20 28 30 36 26 343 218 201 202 200 200 199 193 190
160 156 147 146 150 155 154 144 146 158 161 171 173 174 189 187 193 207 216 214 202 220 234 225 227 218 210 216 213 206 210 209 203 193 176 186 196 187 180 188 210 204 178 160 155 155 141 128 133 139 138 136 132 127 148 176 157 154 162 137 160 193 211 204 186 208 240 269 303 359 16 11 14 20 26 27 22 337 242 216 218 219 216 213 210
161 154 144 147 147 150 156 149 150 157 159 168 174 180 192 194 205 217 232 235 215 226 238 230 230 218 207 209 208 206 208 204 202 203 191 197 203 202 196 185 202 206 187 173 175 172 149 133 135 137 137 139 149 157 169 182 176 171 165 155 177 197 233 237 201 196 219 249 287 331 348 346 348 6 17 17 29 17 349 260 246 241 234 229 223
163 152 143 148 144 146 156 152 146 146 153 167 172 181 187 197 216 218 233 247 230 222 220 218 216 206 202 207 207 200 197 196 200 217 207 190 191 193 186 175 177 189 183 174 176 176 158 140 130 130 133 132 147 164 171 176 181 183 178 176 187 188 219 257 244 216 227 266 280 308 327 340 343 353 7 6 11 12 6 352 304 274 257 245 233
167 156 149 148 144 152 160 153 147 142 149 164 163 167 171 173 202 214 219 238 269 221 204 203 197 192 196 202 207 196 192 197 200 209 202 177 172 166 167 162 156 170 169 161 168 175 165 143 139 148 157 144 136 148 168 175 181 187 192 195 191 195 214 239 257 255 265 279 276 291 313 339 348 347 351 355 357 354 349 342 331 310 286 273 254
160 150 151 152 149 159 161 149 150 150 151 160 159 157 158 162 171 174 186 190 92 71 210 199 183 186 201 209 215 210 201 201 200 195 184 176 174 172 175 165 148 165 174 167 170 174 173 170 174 177 178 173 156 158 171 175 179 186 191 192 188 203 216 211 224 245 264 270 271 278 288 322 338 341 340 341 345 345 339 327 323 322 306 301 293
153 152 157 157 158 167 164 154 157 156 147 148 153 154 153 163 170 158 151 158 148 128 220 180 169 176 188 199 204 206 203 202 201 191 178 179 180 183 189 178 154 176 195 193 193 190 181 185 192 186 182 186 184 182 185 183 185 187 188 191 192 205 212 211 210 211 237 258 262 268 262 289 315 325 332 335 338 341 338 327 317 317 315 313 315
155 160 161 160 165 175 168 163 171 171 161 159 167 170 176 196 214 205 211 262 299 315 232 177 166 169 171 180 189 198 203 203 201 190 186 186 182 191 199 190 159 183 212 217 220 217 197 194 201 191 183 190 201 207 202 193 193 194 196 200 203 206 206 211 212 202 211 227 236 251 254 256 276 304 314 318 322 328 331 327 321 318 317 315 315
164 166 169 170 172 176 164 160 171 176 175 179 193 199 203 210 220 233 246 270 295 319 202 168 165 168 160 169 185 202 211 207 188 175 185 188 181 193 201 200 194 196 216 222 230 237 219 209 213 204 192 196 207 212 205 194 195 199 202 207 210 210 211 214 215 209 210 216 220 227 243 248 252 277 293 301 304 306 307 308 314 318 321 323 318
170 175 178 177 174 171 159 154 154 155 154 148 165 191 199 204 212 221 231 269 291 43 86 108 141 161 146 162 193 211 226 222 190 173 189 194 187 214 215 211 222 218 214 222 235 241 229 223 223 214 211 215 214 208 204 201 204 213 215 221 224 218 220 222 223 226 223 220 221 222 231 239 246 256 265 282 290 289 289 289 294 301 310 318 321
174 182 178 174 174 167 156 149 143 138 133 125 124 127 142 164 172 153 109 83 87 87 86 86 93 130 137 166 190 187 209 216 188 189 230 223 197 233 231 222 227 218 211 222 233 234 228 225 222 217 218 217 205 195 199 206 217 231 228 227 230 223 222 226 228 234 234 230 229 229 231 233 238 245 246 261 275 277 280 285 282 279 289 305 313
179 180 174 175 175 167 159 150 147 141 133 127 117 111 111 108 104 106 99 91 96 93 95 97 78 104 127 157 181 170 181 189 167 178 224 226 212 229 237 237 230 210 205 216 223 223 219 216 217 218 214 204 193 189 190 192 202 222 227 225 233 236 232 233 233 235 237 236 237 236 235 234 233 236 240 247 263 271 275 281 275 266 277 291 297
179 174 172 182 179 170 166 158 155 149 136 123 110 113 113 107 109 113 118 119 114 97 89 242 21 119 123 125 145 147 167 181 174 185 215 226 227 237 235 230 231 219 212 213 216 216 212 212 215 215 209 197 194 194 184 181 185 191 215 230 240 250 250 251 249 244 241 241 245 246 240 236 230 231 241 242 244 259 268 272 266 262 271 278 285
181 175 175 186 183 174 171 166 160 150 138 124 114 120 123 121 123 126 134 140 144 139 149 238 238 180 157 146 144 139 151 163 162 176 200 210 217 231 223 217 226 231 223 215 218 218 214 215 213 209 207 202 198 193 184 184 190 196 222 233 243 258 264 268 265 260 256 250 251 253 246 239 231 227 236 238 232 241 249 251 254 262 268 269 273
184 180 180 189 187 179 174 169 161 153 145 132 121 122 125 131 137 136 140 144 161 175 181 197 187 164 151 146 151 151 152 155 160 173 169 150 176 193 188 200 217 226 219 213 219 221 217 216 209 203 207 210 203 197 192 190 202 225 244 244 253 266 269 272 273 273 274 266 256 251 245 239 232 227 230 231 228 236 240 239 241 247 254 261 265
185 181 184 191 192 187 177 170 163 157 153 137 123 121 125 139 150 147 146 150 164 174 170 167 170 171 158 148 150 157 161 160 164 184 171 138 128 157 150 152 196 219 215 208 215 220 217 212 207 207 212 211 201 196 200 203 219 239 253 258 264 269 268 269 270 273 287 288 267 249 240 234 229 227 229 228 227 235 242 245 246 242 239 245 252
184 183 187 192 195 195 185 174 168 164 155 137 131 137 143 155 165 159 157 164 166 160 158 162 168 176 175 174 173 170 172 168 161 163 154 143 132 127 135 147 171 198 209 207 210 217 217 211 210 212 216 213 204 203 214 223 233 239 243 249 258 269 269 265 262 273 305 316 285 249 239 234 231 230 229 229 230 236 244 250 257 258 248 242 244
185 185 188 194 198 198 191 179 175 173 156 143 153 162 164 168 168 161 157 160 161 160 166 134 130 141 153 167 172 165 157 154 162 162 145 135 128 115 113 109 132 153 169 194 201 208 207 205 208 208 209 210 208 211 220 225 229 232 232 233 240 254 264 262 259 276 313 336 322 257 238 234 235 233 231 233 235 237 247 255 261 265 265 260 255
189 189 191 195 199 200 193 183 182 178 163 162 173 176 174 172 165 159 153 152 155 160 158 130 116 112 115 122 138 153 159 160 166 168 161 155 138 117 115 120 121 129 120 118 150 164 167 183 196 201 203 202 204 211 217 220 226 228 227 221 219 226 243 258 257 264 296 322 327 292 245 238 243 243 240 241 241 239 246 257 261 259 260 262 261
193 194 194 195 199 202 196 188 188 179 172 178 184 180 179 179 176 173 171 167 153 144 143 130 120 114 110 108 113 129 153 162 150 145 161 171 157 141 143 140 122 123 127 126 131 129 131 161 169 179 201 204 204 211 215 221 226 223 221 227 233 235 241 254 254 259 278 293 302 298 277 268 271 268 262 260 260 261 262 266 265 255 250 254 256
197 197 195 195 198 201 197 195 195 185 181 187 187 182 181 183 179 174 171 157 140 137 141 132 121 115 111 111 108 109 114 123 128 131 146 158 152 149 155 157 149 137 137 140 137 133 145 157 151 154 179 198 202 209 215 222 228 225 225 236 247 256 260 259 259 269 281 283 282 280 284 287 284 283 284 282 277 272 270 270 268 260 251 251 256
197 197 196 197 199 200 198 200 201 193 192 195 192 186 184 177 164 154 146 138 137 143 147 142 135 128 120 117 111 109 111 112 120 131 141 146 143 142 143 152 162 156 156 159 150 148 153 147 144 147 156 167 167 172 181 190 203 211 215 224 238 253 263 261 261 273 282 284 282 278 282 284 280 283 289 292 289 280 276 270 260 255 250 244 249
196 198 200 200 202 202 199 200 203 200 202 206 200 193 187 168 151 145 141 144 151 154 157 158 152 141 126 117 110 107 110 111 112 122 138 147 145 138 134 143 158 166 175 180 170 169 169 157 152 149 147 148 145 146 149 150 156 164 165 168 168 146 131 132 131 99 337 322 319 306 293 283 277 277 286 300 303 289 283 279 255 240 241 239 243
196 200 201 201 204 206 201 199 204 207 209 214 208 196 183 159 150 154 154 159 166 165 168 163 150 141 125 114 110 103 101 105 106 110 125 143 150 149 147 148 149 153 168 180 178 182 192 193 185 174 165 159 149 149 149 147 150 153 152 157 157 149 144 142 137 119 91 53 13 329 297 289 283 278 277 290 301 292 287 293 274 241 238 241 246
199 202 203 205 208 208 205 201 203 208 212 215 211 198 178 158 159 168 167 169 175 174 169 158 148 143 130 118 114 107 100 101 103 105 109 127 146 154 154 144 127 123 132 141 143 151 163 178 189 187 185 185 177 166 160 157 162 172 179 180 174 166 162 159 157 152 165 254 281 283 282 282 281 283 286 285 292 304 304 309 306 271 256 248 247
Height
1501 1501 1502 1505 1509 1511 1513 1515 1517 1518 1518 1518 1519 1520 1520 1521 1522 1524 1525 1526 1527 1528 1529 1530 1532 1532 1533 1534 1535 1535 1536 1536 1537 1538 1538 1539 1540 1540 1541 1542 1543 1543 1544 1544 1545 1545 1545 1545 1546 1546 1547 1547 1547 1548 1549 1550 1550 1551 1552 1552 1553 1554 1554 1555 1555 1555 1555 1555 1555 1555 1555 1555 1554 1554 1554 1554 1554 1554 1554 1554 1554 1553 1553 1553 1553
1501 1502 1502 1505 1509 1511 1513 1515 1517 1518 1518 1519 1519 1520 1520 1522 1522 1524 1525 1526 1528 1529 1530 1531 1532 1533 1534 1535 1536 1536 1536 1537 1537 1538 1539 1540 1540 1541 1542 1543 1543 1544 1545 1545 1546 1546 1546 1546 1546 1546 1547 1547 1548 1548 1549 1550 1551 1552 1553 1553 1554 1555 1555 1555 1556 1556 1556 1556 1556 1556 1556 1555 1555 1555 1555 1555 1555 1555 1555 1555 1555 1554 1554 1554 1554
1502 1503 1503 1505 1508 1511 1513 1515 1517 1518 1519 1519 1519 1520 1521 1522 1523 1524 1525 1526 1528 1529 1530 1531 1533 1533 1534 1535 1536 1537 1537 1537 1538 1539 1539 1540 1541 1542 1542 1543 1544 1545 1545 1546 1547 1547 1547 1546 1547 1547 1547 1548 1548 1549 1550 1551 1551 1553 1553 1554 1554 1555 1555 1556 1556 1556 1556 1556 1556 1557 1557 1556 1556 1556 1556 1556 1556 1556 1556 1556 1556 1555 1555 1555 1555
1504 1504 1504 1505 1508 1511 1513 1515 1517 1518 1519 1519 1520 1520 1521 1522 1523 1524 1525 1527 1528 1529 1530 1532 1533 1534 1535 1536 1536 1537 1538 1538 1538 1539 1540 1541 1542 1542 1543 1544 1544 1545 1546 1547 1547 1547 1547 1547 1548 1548 1548 1548 1549 1549 1550 1551 1552 1553 1554 1555 1555 1555 1556 1556 1557 1557 1557 1557 1557 1557 1558 1558 1557 1557 1557 1557 1557 1557 1557 1557 1556 1556 1556 1556 1556
1505 1505 1505 1506 1508 1511 1513 1515 1517 1518 1519 1520 1520 1521 1521 1522 1523 1524 1525 1526 1528 1529 1531 1532 1533 1534 1535 1536 1537 1538 1538 1539 1539 1540 1541 1542 1542 1543 1543 1544 1545 1545 1546 1547 1548 1548 1548 1548 1549 1549 1549 1549 1549 1550 1550 1552 1553 1553 1554 1555 1555 1556 1556 1557 1557 1557 1557 1557 1557 1558 1558 1559 1559 1558 1558 1558 1558 1558 1558 1558 1558 1557 1557 1557 1557
1506 1506 1506 1506 1508 1510 1513 1516 1517 1518 1519 1520 1521 1521 1521 1522 1523 1524 1525 1526 1528 1530 1531 1532 1533 1534 1535 1536 1537 1538 1539 1539 1540 1541 1541 1542 1543 1543 1544 1544 1544 1545 1546 1546 1547 1548 1549 1549 1550 1549 1549 1549 1549 1550 1551 1552 1553 1554 1554 1555 1556 1556 1557 1557 1557 1557 1557 1557 1557 1558 1559 1560 1561 1560 1559 1560 1559 1559 1559 1559 1558 1558 1558 1558 1558
1506 1507 1507 1508 1509 1511 1514 1516 1517 1518 1519 1520 1521 1521 1521 1522 1523 1524 1525 1527 1528 1530 1531 1533 1534 1535 1536 1537 1537 1538 1539 1540 1541 1541 1542 1543 1543 1544 1544 1545 1545 1545 1545 1546 1547 1548 1549 1550 1550 1550 1550 1550 1550 1550 1551 1552 1553 1554 1555 1555 1556 1556 1557 1557 1557 1558 1558 1557 1557 1558 1560 1562 1562 1561 1560 1560 1560 1560 1560 1560 1559 1559 1559 1559 1559
1507 1508 1508 1509 1510 1512 1514 1516 1517 1518 1520 1520 1521 1521 1522 1522 1523 1524 1526 1527 1529 1530 1532 1533 1534 1535 1536 1537 1538 1539 1540 1540 1541 1542 1543 1543 1544 1545 1545 1545 1545 1545 1546 1546 1547 1548 1549 1550 1551 1551 1551 1551 1551 1551 1552 1553 1553 1554 1555 1556 1556 1557 1557 1558 1558 1558 1558 1558 1557 1558 1561 1563 1563 1562 1562 1561 1561 1561 1560 1561 1560 1560 1560 1560 1560
1507 1508 1510 1511 1511 1512 1514 1516 1517 1519 1520 1520 1521 1521 1522 1523 1524 1525 1527 1528 1530 1531 1532 1534 1535 1535 1536 1537 1538 1539 1540 1541 1542 1543 1544 1544 1545 1545 1546 1546 1546 1547 1547 1547 1548 1549 1549 1550 1551 1551 1552 1552 1552 1552 1553 1554 1554 1555 1556 1556 1557 1558 1558 1558 1558 1558 1558 1558 1558 1560 1562 1564 1564 1563 1563 1562 1562 1562 1561 1561 1561 1561 1561 1561 1561
1506 1509 1511 1511 1511 1513 1515 1516 1518 1519 1520 1521 1521 1522 1523 1524 1525 1526 1527 1529 1530 1532 1533 1534 1535 1536 1536 1537 1538 1539 1540 1542 1542 1543 1544 1545 1546 1546 1546 1547 1547 1547 1548 1548 1549 1550 1550 1551 1551 1552 1552 1552 1553 1553 1554 1554 1555 1555 1556 1557 1558 1558 1558 1559 1559 1558 1558 1558 1559 1561 1563 1564 1564 1564 1563 1563 1563 1562 1562 1562 1562 1562 1562 1562 1561
1506 1509 1510 1511 1512 1514 1515 1517 1519 1520 1521 1521 1522 1522 1523 1525 1526 1527 1529 1530 1531 1532 1533 1534 1535 1536 1537 1538 1538 1540 1541 1542 1543 1543 1544 1545 1546 1546 1547 1547 1547 1548 1548 1549 1549 1550 1551 1551 1552 1552 1552 1552 1553 1553 1554 1555 1556 1556 1557 1558 1558 1559 1559 1559 1559 1559 1559 1559 1561 1563 1564 1564 1565 1565 1564 1564 1563 1563 1563 1563 1563 1563 1563 1563 1562
1508 1509 1510 1511 1513 1515 1516 1518 1519 1521 1521 1522 1523 1523 1524 1526 1527 1528 1530 1531 1532 1533 1534 1535 1536 1536 1537 1538 1539 1540 1541 1542 1543 1544 1545 1546 1546 1547 1547 1547 1547 1548 1548 1549 1549 1550 1551 1551 1552 1552 1552 1552 1553 1553 1554 1555 1556 1556 1557 1558 1559 1560 1560 1560 1560 1559 1560 1561 1563 1563 1564 1565 1565 1565 1565 1565 1564 1564 1564 1564 1564 1564 1564 1564 1563
1508 1510 1511 1512 1513 1515 1517 1519 1520 1521 1522 1523 1523 1524 1525 1526 1528 1529 1531 1532 1533 1534 1535 1536 1536 1538 1538 1539 1540 1541 1542 1543 1544 1544 1545 1546 1547 1547 1548 1548 1548 1548 1548 1549 1549 1550 1551 1551 1552 1552 1552 1552 1553 1554 1554 1555 1556 1557 1557 1559 1560 1560 1561 1561 1560 1560 1561 1562 1563 1564 1564 1565 1565 1565 1565 1565 1564 1564 1564 1565 1565 1565 1564 1564 1564
1509 1510 1512 1513 1514 1516 1517 1519 1520 1521 1522 1523 1524 1525 1526 1527 1529 1530 1532 1533 1534 1535 1536 1537 1538 1539 1539 1540 1541 1542 1543 1543 1544 1545 1545 1546 1547 1547 1548 1548 1548 1548 1549 1549 1550 1550 1551 1551 1552 1552 1552 1552 1553 1554 1554 1555 1556 1557 1558 1559 1560 1561 1561 1562 1561 1560 1561 1562 1563 1564 1564 1565 1565 1565 1565 1565 1565 1565 1565 1565 1566 1566 1565 1565 1565
1509 1510 1512 1514 1515 1516 1517 1519 1520 1522 1523 1524 1525 1526 1527 1528 1529 1531 1532 1534 1536 1537 1538 1538 1539 1540 1540 1541 1542 1543 1543 1544 1545 1545 1545 1546 1547 1547 1548 1548 1548 1549 1549 1549 1550 1550 1551 1551 1552 1552 1552 1553 1553 1554 1554 1555 1556 1557 1558 1559 1560 1561 1562 1562 1561 1560 1561 1562 1563 1564 1564 1565 1565 1565 1565 1565 1565 1565 1565 1566 1566 1566 1566 1566 1566
1509 1511 1512 1514 1515 1517 1518 1519 1521 1522 1524 1525 1526 1527 1528 1529 1530 1532 1533 1535 1536 1538 1539 1539 1540 1541 1541 1542 1542 1543 1544 1545 1545 1545 1546 1546 1546 1547 1547 1548 1548 1549 1549 1549 1550 1550 1551 1551 1551 1551 1552 1553 1553 1554 1554 1555 1557 1557 1558 1559 1560 1561 1562 1563 1562 1561 1561 1562 1563 1564 1565 1565 1565 1566 1566 1566 1565 1565 1566 1566 1566 1566 1566 1566 1566
1510 1511 1512 1514 1516 1517 1519 1520 1522 1523 1524 1525 1526 1528 1529 1530 1531 1532 1534 1535 1537 1538 1539 1540 1540 1541 1542 1542 1543 1544 1545 1545 1545 1545 1546 1546 1547 1547 1547 1547 1548 1549 1549 1549 1550 1550 1551 1551 1551 1551 1552 1553 1554 1554 1555 1556 1557 1558 1559 1560 1561 1561 1562 1563 1563 1562 1562 1562 1563 1563 1564 1565 1565 1566 1566 1566 1566 1565 1566 1566 1566 1567 1567 1567 1566
1510 1512 1513 1515 1517 1519 1521 1522 1524 1525 1526 1526 1528 1529 1529 1531 1532 1533 1534 1535 1536 1538 1539 1540 1541 1541 1542 1543 1544 1545 1545 1545 1545 1545 1546 1547 1547 1547 1547 1547 1548 1549 1549 1550 1550 1551 1551 1550 1550 1551 1552 1553 1553 1554 1555 1556 1557 1559 1560 1561 1561 1562 1563 1564 1563 1562 1562 1563 1563 1564 1564 1565 1565 1566 1566 1567 1566 1565 1566 1566 1567 1567 1567 1567 1567
1511 1513 1514 1516 1517 1519 1521 1523 1525 1526 1528 1528 1529 1529 1530 1532 1533 1534 1535 1536 1537 1538 1539 1540 1541 1541 1542 1542 1543 1544 1544 1544 1545 1545 1546 1547 1547 1547 1547 1548 1548 1549 1549 1550 1550 1551 1550 1550 1550 1551 1552 1552 1553 1554 1555 1556 1557 1559 1560 1562 1562 1563 1564 1564 1563 1563 1563 1563 1564 1564 1565 1565 1565 1566 1566 1567 1567 1566 1566 1567 1567 1567 1567 1567 1567
1512 1514 1514 1516 1517 1519 1521 1524 1526 1527 1529 1529 1530 1530 1531 1532 1533 1535 1536 1537 1538 1538 1539 1539 1540 1541 1542 1542 1543 1543 1543 1544 1545 1546 1546 1547 1547 1547 1548 1548 1549 1549 1550 1550 1550 1550 1550 1550 1550 1551 1551 1552 1553 1554 1555 1556 1557 1558 1560 1562 1563 1564 1564 1564 1564 1564 1564 1564 1564 1564 1565 1565 1566 1566 1566 1566 1567 1567 1566 1567 1567 1568 1568 1568 1568
1511 1513 1514 1515 1516 1518 1521 1523 1525 1526 1528 1529 1531 1531 1532 1533 1534 1535 1537 1538 1539 1539 1539 1539 1540 1540 1542 1542 1542 1543 1543 1544 1545 1546 1547 1547 1547 1547 1548 1548 1549 1549 1550 1550 1551 1550 1550 1550 1550 1551 1551 1552 1553 1554 1555 1556 1557 1558 1559 1561 1563 1564 1564 1564 1565 1565 1565 1565 1565 1564 1565 1565 1565 1566 1566 1566 1567 1567 1567 1567 1567 1568 1568 1568 1568
1510 1511 1513 1515 1516 1518 1520 1521 1523 1525 1527 1529 1530 1531 1532 1533 1534 1535 1537 1538 1539 1539 1539 1539 1539 1540 1541 1542 1542 1543 1543 1544 1545 1547 1547 1548 1548 1548 1548 1549 1549 1549 1550 1550 1551 1550 1550 1550 1550 1551 1551 1552 1552 1553 1555 1556 1557 1558 1559 1561 1562 1564 1564 1564 1565 1566 1566 1566 1565 1565 1565 1565 1565 1566 1566 1566 1567 1567 1567 1567 1567 1568 1568 1569 1569
1509 1511 1513 1515 1516 1518 1520 1521 1522 1524 1527 1528 1530 1530 1531 1532 1534 1535 1536 1538 1539 1540 1540 1539 1539 1539 1541 1542 1542 1543 1544 1545 1546 1547 1548 1548 1549 1549 1549 1549 1549 1549 1550 1550 1550 1550 1550 1550 1550 1551 1551 1552 1553 1554 1555 1556 1558 1559 1560 1561 1562 1563 1564 1564 1566 1566 1566 1566 1566 1566 1566 1565 1565 1565 1566 1566 1567 1567 1567 1567 1567 1568 1568 1569 1569
1510 1512 1514 1515 1517 1520 1522 1523 1523 1524 1526 1527 1529 1530 1531 1532 1534 1535 1537 1539 1540 1540 1540 1540 1539 1540 1541 1542 1543 1544 1545 1545 1545 1546 1546 1547 1547 1548 1548 1548 1549 1549 1549 1550 1550 1550 1551 1551 1551 1551 1551 1552 1553 1554 1555 1556 1558 1559 1560 1561 1562 1563 1564 1565 1566 1566 1566 1567 1566 1566 1566 1566 1566 1565 1566 1566 1567 1567 1567 1567 1568 1568 1568 1569 1569
1511 1513 1515 1516 1518 1521 1522 1524 1524 1524 1525 1526 1527 1529 1530 1532 1533 1535 1537 1538 1540 1540 1539 1540 1541 1542 1542 1543 1544 1544 1545 1544 1544 1545 1546 1547 1547 1547 1547 1548 1548 1549 1549 1549 1550 1550 1551 1551 1551 1551 1551 1552 1553 1554 1555 1556 1558 1559 1560 1562 1562 1564 1565 1565 1565 1566 1566 1567 1567 1567 1567 1566 1566 1566 1566 1566 1567 1567 1567 1568 1568 1568 1568 1569 1569
1511 1513 1515 1517 1519 1520 1521 1523 1524 1525 1526 1526 1527 1528 1529 1531 1532 1534 1535 1536 1539 1538 1538 1540 1542 1543 1543 1543 1544 1544 1544 1543 1544 1545 1546 1547 1547 1547 1547 1547 1548 1549 1550 1550 1550 1551 1552 1552 1552 1552 1551 1552 1553 1554 1555 1556 1557 1559 1560 1562 1563 1564 1564 1565 1565 1565 1566 1566 1567 1567 1567 1567 1567 1566 1566 1567 1567 1567 1568 1568 1568 1569 1569 1569 1570
1512 1514 1516 1517 1518 1520 1521 1523 1524 1525 1526 1527 1528 1528 1529 1531 1532 1533 1533 1535 1537 1537 1537 1539 1539 1540 1541 1542 1543 1543 1543 1543 1544 1545 1546 1546 1545 1546 1547 1547 1549 1550 1550 1551 1551 1552 1552 1553 1553 1553 1552 1552 1552 1553 1554 1555 1557 1558 1560 1561 1563 1564 1564 1564 1565 1565 1565 1566 1567 1567 1567 1567 1567 1567 1567 1567 1567 1567 1568 1568 1568 1569 1569 1570 1570
1512 1515 1517 1518 1519 1520 1522 1523 1524 1526 1526 1527 1528 1529 1530 1531 1531 1532 1532 1535 1537 1536 1536 1537 1537 1538 1539 1541 1542 1542 1542 1543 1544 1545 1545 1544 1544 1546 1547 1548 1549 1550 1551 1551 1552 1553 1553 1553 1553 1553 1552 1552 1552 1553 1554 1555 1557 1558 1560 1561 1563 1564 1564 1564 1564 1564 1565 1566 1566 1567 1567 1567 1567 1567 1567 1567 1567 1567 1568 1568 1568 1569 1569 1570 1570
1512 1514 1517 1519 1520 1521 1522 1523 1525 1526 1526 1527 1528 1529 1530 1531 1532 1532 1532 1534 1536 1536 1536 1535 1536 1537 1538 1540 1541 1542 1541 1542 1544 1544 1545 1545 1545 1546 1547 1548 1549 1550 1551 1552 1552 1553 1553 1553 1552 1552 1551 1552 1552 1553 1554 1555 1557 1559 1560 1561 1563 1564 1564 1564 1563 1564 1564 1565 1566 1566 1567 1567 1567 1567 1567 1567 1567 1567 1567 1568 1568 1569 1569 1569 1570
1512 1514 1516 1518 1520 1521 1522 1524 1525 1526 1527 1527 1528 1529 1530 1531 1532 1532 1532 1532 1534 1535 1535 1535 1536 1536 1537 1539 1540 1541 1540 1541 1543 1542 1544 1546 1546 1546 1546 1547 1548 1550 1551 1552 1552 1553 1553 1552 1552 1551 1551 1552 1552 1553 1553 1555 1557 1559 1560 1562 1563 1564 1564 1564 1563 1563 1563 1564 1565 1566 1566 1566 1567 1567 1567 1567 1567 1567 1567 1567 1568 1568 1569 1569 1570
1512 1514 1516 1518 1521 1522 1523 1524 1525 1526 1527 1528 1529 1529 1530 1530 1531 1532 1533 1532 1532 1533 1534 1535 1535 1536 1537 1539 1541 1541 1540 1541 1542 1542 1543 1545 1546 1546 1546 1546 1547 1548 1550 1550 1551 1551 1552 1551 1551 1551 1551 1552 1552 1553 1553 1554 1556 1557 1559 1561 1562 1563 1563 1564 1563 1562 1563 1564 1565 1565 1566 1566 1566 1566 1566 1566 1566 1567 1567 1567 1567 1568 1568 1569 1569
1511 1513 1516 1519 1521 1522 1523 1525 1525 1526 1527 1528 1528 1528 1528 1529 1530 1531 1532 1532 1531 1530 1531 1533 1534 1535 1535 1537 1540 1541 1541 1540 1540 1542 1543 1544 1543 1544 1545 1544 1545 1547 1548 1548 1548 1548 1548 1549 1550 1550 1550 1551 1551 1552 1552 1553 1555 1556 1558 1559 1560 1561 1562 1563 1562 1562 1562 1563 1564 1565 1565 1565 1566 1566 1566 1566 1566 1566 1567 1567 1567 1567 1568 1568 1569
1510 1513 1516 1518 1520 1521 1523 1524 1525 1525 1525 1526 1527 1527 1527 1527 1528 1529 1530 1531 1531 1530 1530 1530 1532 1534 1534 1536 1538 1540 1540 1538 1539 1540 1542 1542 1542 1542 1543 1543 1544 1546 1547 1547 1546 1545 1545 1547 1548 1550 1550 1551 1551 1551 1551 1553 1554 1555 1557 1558 1559 1560 1561 1561 1562 1562 1561 1562 1563 1564 1564 1565 1565 1565 1565 1565 1565 1566 1566 1566 1566 1567 1567 1568 1568
1509 1513 1516 1518 1519 1520 1522 1523 1524 1524 1525 1525 1526 1526 1527 1527 1527 1528 1529 1529 1530 1531 1530 1530 1530 1531 1532 1534 1535 1536 1536 1537 1538 1539 1540 1541 1541 1541 1542 1543 1543 1545 1546 1547 1547 1545 1545 1546 1548 1549 1550 1550 1550 1550 1551 1552 1553 1555 1556 1557 1558 1559 1560 1560 1561 1561 1561 1561 1561 1562 1563 1564 1564 1564 1564 1565 1565 1565 1565 1565 1566 1566 1567 1567 1568
1510 1514 1516 1517 1518 1520 1521 1522 1522 1523 1524 1524 1525 1526 1526 1526 1526 1527 1528 1528 1528 1529 1530 1530 1530 1530 1531 1532 1532 1533 1535 1536 1538 1538 1539 1540 1541 1541 1542 1542 1543 1544 1545 1546 1546 1546 1546 1547 1548 1549 1550 1550 1550 1550 1550 1552 1553 1554 1555 1556 1557 1558 1559 1560 1560 1561 1561 1561 1561 1561 1561 1562 1563 1563 1564 1564 1564 1564 1564 1565 1565 1566 1566 1567 1567
1512 1514 1516 1516 1517 1519 1520 1520 1521 1522 1523 1524 1525 1525 1525 1525 1526 1526 1527 1527 1527 1528 1529 1529 1529 1530 1531 1532 1532 1532 1533 1535 1537 1538 1538 1538 1539 1539 1540 1542 1543 1544 1545 1545 1545 1545 1546 1547 1548 1549 1549 1549 1549 1549 1550 1551 1552 1553 1554 1555 1556 1557 1558 1559 1559 1560 1560 1561 1561 1560 1560 1561 1561 1562 1562 1562 1563 1563 1563 1564 1564 1564 1565 1566 1566
1514 1515 1516 1516 1517 1517 1518 1519 1520 1521 1522 1523 1524 1525 1525 1525 1526 1526 1527 1527 1527 1527 1527 1528 1529 1529 1530 1531 1532 1532 1531 1532 1535 1536 1536 1537 1537 1538 1539 1541 1543 1543 1544 1545 1545 1545 1546 1547 1548 1549 1549 1548 1548 1548 1549 1550 1550 1551 1553 1554 1555 1556 1557 1557 1558 1558 1559 1559 1560 1560 1560 1560 1560 1560 1560 1561 1561 1562 1562 1562 1563 1563 1564 1564 1565
1515 1516 1516 1516 1516 1516 1517 1518 1519 1521 1522 1522 1524 1524 1525 1525 1526 1526 1527 1526 1526 1526 1527 1527 1528 1529 1530 1531 1532 1533 1532 1532 1535 1536 1536 1537 1538 1538 1539 1540 1542 1543 1544 1544 1544 1545 1546 1547 1548 1549 1548 1548 1547 1548 1548 1549 1550 1550 1551 1553 1554 1555 1555 1555 1556 1556 1557 1558 1558 1559 1560 1560 1559 1559 1558 1559 1560 1560 1561 1561 1562 1562 1562 1563 1564
1515 1516 1516 1516 1516 1516 1516 1518 1519 1520 1521 1522 1523 1524 1525 1526 1526 1526 1527 1526 1526 1526 1527 1526 1527 1528 1529 1530 1531 1532 1533 1534 1536 1537 1537 1538 1538 1539 1539 1539 1540 1542 1543 1544 1544 1544 1545 1546 1547 1547 1547 1547 1547 1547 1548 1549 1550 1550 1551 1552 1552 1553 1554 1554 1555 1555 1555 1556 1557 1558 1558 1558 1558 1558 1557 1557 1558 1559 1559 1560 1561 1561 1561 1562 1563
1514 1515 1516 1516 1515 1515 1515 1517 1519 1520 1520 1522 1523 1525 1526 1526 1526 1526 1527 1527 1526 1526 1526 1526 1527 1527 1528 1529 1530 1531 1532 1534 1535 1537 1537 1538 1538 1538 1539 1539 1539 1540 1541 1542 1542 1543 1544 1545 1546 1546 1546 1546 1546 1546 1547 1549 1550 1550 1551 1552 1552 1553 1553 1553 1553 1554 1554 1554 1555 1556 1556 1556 1557 1557 1556 1556 1556 1557 1558 1558 1559 1560 1560 1561 1562
1512 1514 1514 1515 1514 1514 1515 1516 1518 1519 1520 1522 1523 1525 1526 1526 1526 1527 1527 1527 1526 1526 1526 1527 1527 1528 1528 1529 1529 1531 1532 1533 1534 1535 1536 1537 1537 1537 1537 1538 1538 1539 1540 1541 1542 1542 1543 1544 1544 1544 1545 1545 1546 1546 1547 1549 1549 1550 1551 1552 1552 1552 1552 1552 1552 1552 1553 1553 1553 1554 1554 1555 1555 1555 1556 1556 1555 1555 1556 1556 1557 1558 1559 1560 1560
1510 1512 1513 1513 1514 1514 1515 1516 1517 1519 1520 1521 1523 1524 1525 1526 1526 1526 1527 1527 1527 1527 1527 1527 1528 1528 1529 1529 1530 1531 1532 1533 1533 1534 1535 1536 1536 1536 1536 1537 1537 1538 1539 1540 1541 1541 1542 1543 1543 1543 1544 1544 1546 1546 1547 1548 1549 1550 1551 1551 1552 1552 1552 1552 1552 1552 1552 1551 1551 1551 1552 1553 1554 1554 1554 1555 1555 1555 1555 1555 1555 1556 1557 1558 1559
1508 1510 1512 1513 1513 1514 1515 1516 1517 1519 1520 1521 1522 1524 1525 1526 1526 1526 1526 1526 1527 1527 1527 1527 1528 1528 1529 1530 1530 1531 1532 1533 1533 1534 1535 1536 1536 1536 1536 1536 1537 1537 1538 1539 1539 1540 1540 1541 1541 1542 1543 1544 1545 1547 1547 1548 1549 1550 1551 1551 1552 1552 1551 1551 1551 1551 1551 1550 1549 1550 1550 1551 1552 1552 1553 1553 1553 1554 1554 1554 1554 1554 1555 1556 1557
1507 1509 1511 1512 1513 1514 1515 1516 1517 1519 1520 1521 1522 1523 1524 1525 1525 1526 1526 1526 1527 1527 1527 1528 1528 1528 1529 1530 1531 1531 1532 1532 1533 1534 1535 1535 1535 1536 1536 1536 1537 1537 1538 1538 1538 1539 1539 1540 1540 1541 1542 1543 1545 1547 1547 1547 1548 1549 1550 1551 1552 1552 1551 1551 1551 1551 1550 1549 1549 1548 1549 1549 1550 1551 1551 1551 1551 1552 1553 1553 1553 1553 1554 1554 1555
1505 1507 1509 1511 1512 1513 1514 1515 1517 1518 1519 1520 1521 1522 1523 1524 1525 1525 1526 1526 1527 1528 1528 1528 1528 1529 1529 1530 1531 1531 1532 1532 1533 1534 1535 1536 1536 1536 1536 1536 1537 1537 1537 1538 1538 1539 1539 1539 1540 1540 1541 1542 1544 1545 1546 1546 1547 1548 1549 1550 1551 1551 1550 1550 1550 1550 1549 1548 1548 1548 1548 1548 1549 1549 1550 1550 1550 1551 1551 1552 1552 1552 1553 1553 1553
1504 1506 1508 1510 1512 1513 1513 1515 1516 1518 1519 1520 1521 1521 1522 1523 1524 1524 1525 1526 1527 1527 1528 1528 1529 1529 1530 1530 1531 1531 1532 1532 1533 1534 1535 1535 1536 1537 1537 1537 1537 1537 1537 1537 1538 1538 1538 1539 1540 1540 1541 1542 1543 1544 1545 1546 1546 1548 1549 1549 1549 1549 1549 1549 1549 1549 1548 1548 1548 1548 1547 1548 1548 1548 1549 1549 1549 1549 1550 1550 1551 1551 1551 1552 1552
1502 1504 1506 1508 1510 1512 1513 1514 1516 1517 1518 1519 1520 1521 1521 1523 1523 1524 1525 1525 1526 1527 1527 1528 1529 1530 1530 1531 1531 1532 1532 1532 1533 1534 1534 1535 1536 1537 1537 1537 1537 1537 1537 1537 1537 1538 1538 1539 1539 1540 1540 1541 1542 1543 1544 1545 1546 1547 1548 1548 1548 1549 1549 1548 1548 1548 1548 1547 1547 1547 1547 1547 1547 1548 1548 1548 1548 1548 1548 1549 1549 1549 1549 1550 1550
1500 1502 1504 1506 1508 1510 1511 1513 1514 1516 1518 1519 1519 1520 1521 1522 1523 1523 1524 1525 1525 1526 1527 1528 1529 1530 1531 1531 1532 1532 1532 1533 1533 1534 1534 1535 1536 1536 1537 1537 1537 1538 1538 1538 1538 1538 1539 1539 1540 1540 1541 1541 1542 1543 1543 1544 1545 1546 1547 1547 1548 1548 1548 1547 1548 1548 1547 1546 1546 1546 1547 1547 1547 1547 1547 1547 1547 1546 1546 1547 1547 1547 1548 1548 1549
1497 1499 1501 1503 1506 1508 1510 1511 1513 1515 1517 1518 1519 1520 1521 1521 1522 1523 1523 1524 1526 1527 1527 1528 1529 1530 1531 1531 1532 1532 1533 1533 1534 1534 1535 1536 1536 1537 1537 1537 1538 1538 1538 1539 1539 1539 1540 1540 1540 1541 1541 1542 1543 1543 1543 1544 1545 1545 1546 1546 1547 1547 1547 1547 1547 1547 1547 1546 1545 1546 1546 1546 1546 1546 1546 1545 1545 1545 1545 1545 1545 1546 1546 1547 1547
1494 1497 1498 1501 1503 1504 1507 1509 1511 1514 1516 1518 1519 1520 1521 1521 1521 1522 1522 1524 1525 1527 1528 1528 1529 1530 1531 1532 1532 1533 1534 1534 1535 1535 1536 1537 1537 1538 1538 1538 1538 1538 1539 1539 1539 1540 1540 1541 1541 1542 1542 1543 1543 1544 1544 1544 1544 1545 1545 1546 1546 1546 1546 1546 1546 1546 1546 1546 1546 1546 1546 1545 1545 1545 1544 1544 1543 1544 1544 1544 1544 1544 1545 1545 1546
1493 1495 1497 1498 1500 1501 1503 1506 1508 1511 1514 1516 1518 1519 1520 1520 1521 1522 1522 1523 1524 1526 1527 1528 1528 1529 1531 1532 1533 1534 1534 1535 1536 1536 1537 1538 1538 1539 1539 1539 1539 1539 1539 1539 1540 1540 1540 1541 1541 1542 1543 1544 1544 1545 1545 1545 1545 1545 1545 1546 1546 1546 1546 1546 1546 1546 1546 1546 1546 1546 1545 1545 1544 1543 1543 1542 1542 1543 1543 1543 1543 1544 1544 1544 1545